CW0570 Weather Reports


Display with metric or nautical units.
time (UTC)temp
F
wind
direction
speed
MPH
gust
MPH
rain 1hr
in
rain 24hr
in
rain mn
in
humidity
%
barometer
mb
20260507010104 63 348 3.0 8.0 0.00 0.00 0.00 78 1021.6
20260507004553 64 344 3.0 10.0 0.00 0.00 0.00 76 1021.7
20260507003052 64 324 2.0 9.0 0.00 0.00 0.00 77 1021.5
20260507001653 64 267 2.0 7.0 0.00 0.00 0.00 76 1021.6
20260507000050 65 175 2.0 9.0 0.00 0.00 0.00 76 1021.6
20260506234549 65 326 1.0 8.0 0.00 0.00 0.00 74 1021.4
20260506233102 65 360 2.0 6.0 0.00 0.00 0.00 76 1021.3
20260506231546 66 246 2.0 6.0 0.00 0.00 0.00 76 1021.4
20260506230047 65 252 1.0 11.0 0.00 0.00 0.00 78 1021.4
20260506224545 64 169 6.0 15.0 0.00 0.00 0.00 77 1021.6
20260506223043 65 24 1.0 7.0 0.00 0.00 0.00 76 1021.7
20260506221550 64 140 2.0 11.0 0.00 0.00 0.00 79 1021.9
20260506220042 65 168 2.0 7.0 0.00 0.00 0.00 77 1021.9
20260506214541 64 210 1.0 11.0 0.00 0.00 0.00 77 1022.1
20260506213040 64 227 1.0 11.0 0.00 0.00 0.00 77 1022.2
20260506211540 64 88 3.0 9.0 0.00 0.00 0.00 77 1022.1
20260506210039 64 261 2.0 9.0 0.00 0.00 0.00 78 1022.2
20260506204539 64 161 2.0 6.0 0.00 0.00 0.00 77 1022.1
20260506203037 65 109 3.0 8.0 0.00 0.00 0.00 77 1022.1
20260506201537 65 247 2.0 7.0 0.00 0.00 0.00 78 1022.1
20260506200042 65 69 1.0 10.0 0.00 0.00 0.00 76 1022.2
20260506194544 64 9 1.0 7.0 0.00 0.00 0.00 78 1022.2
20260506193035 64 230 1.0 9.0 0.00 0.00 0.00 77 1022.2
20260506191534 65 254 2.0 8.0 0.00 0.00 0.00 77 1022.0
20260506190031 64 254 2.0 8.0 0.00 0.00 0.00 79 1021.9
20260506184530 64 292 2.0 7.0 0.00 0.00 0.00 77 1022.1
20260506183030 63 92 0.0 3.0 0.00 0.00 0.00 79 1022.1
20260506181524 62 284 3.0 7.0 0.00 0.00 0.00 80 1022.2
20260506180020 61 258 1.0 6.0 0.00 0.00 0.00 82 1022.2
20260506174517 60 230 1.0 4.0 0.00 0.00 0.00 84 1022.4
20260506173020 59 273 1.0 3.0 0.00 0.00 0.00 83 1022.3
20260506171509 57 133 1.0 2.0 0.00 0.00 0.00 85 1022.3
20260506170007 56 317 0.0 2.0 0.00 0.00 0.00 86 1022.3
20260506164505 56 15 1.0 3.0 0.00 0.00 0.00 87 1022.2
20260506163002 55 360 1.0 4.0 0.00 0.00 0.00 87 1022.5
20260506161601 55 360 0.0 2.0 0.00 0.00 0.00 87 1022.2
20260506160111 54 360 0.0 2.0 0.00 0.00 0.00 88 1022.6
20260506154557 54 360 0.0 2.0 0.00 0.00 0.00 91 1022.7
20260506153058 53 360 0.0 2.0 0.00 0.00 0.00 93 1022.8
20260506151553 53 360 0.0 2.0 0.00 0.00 0.00 94 1022.7
20260506150053 53 360 0.0 0.0 0.00 0.00 0.00 94 1022.6
20260506144552 52 360 0.0 2.0 0.00 0.00 0.00 95 1022.4
20260506143050 52 360 0.0 1.0 0.00 0.00 0.00 95 1022.3
20260506141606 52 360 0.0 0.0 0.00 0.00 0.00 95 1022.2
20260506140048 52 360 0.0 0.0 0.00 0.00 0.00 95 1021.9
20260506134546 52 360 0.0 0.0 0.00 0.00 0.00 95 1021.9
20260506133045 52 360 0.0 0.0 0.00 0.00 0.00 95 1021.7
20260506131545 52 360 0.0 0.0 0.00 0.00 0.00 95 1021.7
20260506130042 52 360 0.0 0.0 0.00 0.00 0.00 95 1021.7
20260506124543 52 360 0.0 0.0 0.00 0.00 0.00 95 1021.7
20260506123044 52 360 0.0 2.0 0.00 0.00 0.00 95 1021.6
20260506121543 52 360 0.0 0.0 0.00 0.00 0.00 94 1021.5
20260506120105 52 360 0.0 1.0 0.00 0.00 0.00 94 1021.3
20260506114539 52 360 0.0 0.0 0.00 0.00 0.00 94 1021.3
20260506113035 52 360 0.0 0.0 0.00 0.00 0.00 94 1021.2
20260506111533 52 360 0.0 0.0 0.00 0.00 0.00 94 1021.0
20260506110032 52 360 0.0 1.0 0.00 0.00 0.00 93 1020.9
20260506104532 52 360 0.0 0.0 0.00 0.00 0.00 93 1020.9
20260506103031 52 360 0.0 0.0 0.00 0.00 0.00 93 1020.7
20260506101527 52 327 0.0 1.0 0.00 0.00 0.00 92 1020.5
20260506100025 52 327 0.0 2.0 0.00 0.00 0.00 92 1020.4
20260506094532 52 325 0.0 2.0 0.00 0.00 0.00 92 1020.3
20260506093039 53 325 0.0 3.0 0.00 0.00 0.00 91 1020.3
20260506091524 53 332 0.0 2.0 0.00 0.00 0.00 91 1020.2
20260506090019 53 19 0.0 2.0 0.00 0.00 0.00 90 1020.1
20260506084519 53 35 0.0 2.0 0.00 0.00 0.00 90 1020.1
20260506083017 53 35 0.0 0.0 0.00 0.00 0.00 90 1019.9
20260506081516 53 35 0.0 2.0 0.00 0.00 0.00 89 1019.9
20260506073010 53 351 0.0 0.0 0.00 0.00 0.00 89 1019.5
20260506071510 53 351 0.0 2.0 0.00 0.00 0.00 89 1019.3
20260506061505 54 349 0.0 3.0 0.00 0.00 0.00 88 1019.2
20260506044603 54 311 0.0 3.0 0.00 0.00 0.00 87 1018.8
20260506043057 55 346 0.0 2.0 0.00 0.00 0.00 87 1018.7
20260506041557 55 332 0.0 2.0 0.00 0.00 0.00 86 1018.5
20260506040058 55 332 0.0 0.0 0.00 0.00 0.00 86 1018.2
20260506034553 55 332 0.0 2.0 0.00 0.00 0.00 85 1018.2
20260506033050 56 332 0.0 0.0 0.00 0.00 0.00 85 1017.9
20260506031558 56 332 0.0 0.0 0.00 0.00 0.00 85 1017.8
20260506030105 56 332 0.0 3.0 0.00 0.00 0.00 84 1017.7
20260506024546 57 133 0.0 2.0 0.00 0.00 0.00 84 1017.5
20260506023043 57 133 0.0 2.0 0.00 0.00 0.00 84 1017.4
20260506021543 57 152 1.0 2.0 0.00 0.00 0.00 83 1017.2
20260506020044 58 259 1.0 4.0 0.00 0.00 0.00 81 1017.1
20260506014543 58 335 1.0 5.0 0.00 0.00 0.00 81 1017.0
20260506013046 59 15 2.0 6.0 0.00 0.00 0.00 80 1017.0
20260506011541 62 13 2.0 8.0 0.00 0.00 0.00 75 1016.9